Time,TemperatureF,DewpointF,PressureIn,WindDirection,WindDirectionDegrees,WindSpeedMPH,WindSpeedGustMPH,Humidity,HourlyPrecipIn,Conditions,Clouds,dailyrainin,SoftwareType,DateUTC
2013-05-14 00:04:00,68.5,56.7,29.92,SSW,206,2.0,5.0,65,0.00,,,-99.99,Meteorologica,2013-05-14 05:04:00,
2013-05-14 00:09:00,68.7,56.9,29.92,South,190,0.0,0.0,65,0.00,,,-99.99,Meteorologica,2013-05-14 05:09:00,
2013-05-14 00:14:00,68.5,56.9,29.91,SSW,199,3.0,5.1,66,0.00,,,-99.99,Meteorologica,2013-05-14 05:14:00,
2013-05-14 00:19:00,68.4,56.9,29.92,SSW,203,0.3,5.1,66,0.00,,,-99.99,Meteorologica,2013-05-14 05:19:00,
2013-05-14 00:24:00,68.5,57.2,29.91,SSW,207,1.6,3.4,66,0.00,,,-99.99,Meteorologica,2013-05-14 05:24:00,
2013-05-14 00:29:00,68.4,57.3,29.91,South,186,0.7,3.3,67,0.00,,,-99.99,Meteorologica,2013-05-14 05:29:00,
2013-05-14 00:34:00,68.3,57.3,29.91,SE,124,1.9,4.3,67,0.00,,,-99.99,Meteorologica,2013-05-14 05:34:00,
2013-05-14 00:39:00,68.3,57.4,29.91,South,175,0.0,0.0,67,0.00,,,-99.99,Meteorologica,2013-05-14 05:39:00,
2013-05-14 00:44:00,68.2,57.5,29.91,SSE,152,2.7,5.7,68,0.00,,,-99.99,Meteorologica,2013-05-14 05:44:00,
2013-05-14 00:49:00,68.1,57.5,29.91,South,170,0.0,0.0,68,0.00,,,-99.99,Meteorologica,2013-05-14 05:49:00,
2013-05-14 00:54:00,68.0,57.6,29.91,SSE,160,2.7,4.4,68,0.00,,,-99.99,Meteorologica,2013-05-14 05:54:00,
2013-05-14 00:59:00,67.9,57.6,29.90,SSW,197,0.0,0.0,69,0.00,,,-99.99,Meteorologica,2013-05-14 05:59:00,
2013-05-14 01:04:00,67.9,57.7,29.90,SSW,197,0.0,0.0,69,0.00,,,-99.99,Meteorologica,2013-05-14 06:04:00,
2013-05-14 01:09:00,67.6,57.6,29.91,SSW,197,0.0,0.0,70,0.00,,,-99.99,Meteorologica,2013-05-14 06:09:00,
2013-05-14 01:14:00,67.3,57.6,29.90,SSW,197,0.0,0.0,70,0.00,,,-99.99,Meteorologica,2013-05-14 06:14:00,
2013-05-14 01:19:00,67.1,57.7,29.90,SSW,197,0.0,0.0,71,0.00,,,-99.99,Meteorologica,2013-05-14 06:19:00,
2013-05-14 01:24:00,66.8,57.6,29.90,SSW,197,0.0,0.0,71,0.00,,,-99.99,Meteorologica,2013-05-14 06:24:00,
2013-05-14 01:29:00,66.6,57.6,29.90,SSW,197,0.0,0.0,72,0.00,,,-99.99,Meteorologica,2013-05-14 06:29:00,
2013-05-14 01:34:00,66.3,57.4,29.90,SSW,197,0.0,0.0,72,0.00,,,-99.99,Meteorologica,2013-05-14 06:34:00,
2013-05-14 01:39:00,66.1,57.5,29.89,SSW,197,0.0,0.0,73,0.00,,,-99.99,Meteorologica,2013-05-14 06:39:00,
2013-05-14 01:44:00,66.0,57.5,29.89,SSW,197,0.0,0.0,73,0.00,,,-99.99,Meteorologica,2013-05-14 06:44:00,
2013-05-14 01:49:00,65.8,57.5,29.89,SSW,197,0.0,0.0,74,0.00,,,-99.99,Meteorologica,2013-05-14 06:49:00,
2013-05-14 01:54:00,65.7,57.5,29.89,SSW,197,0.0,0.0,74,0.00,,,-99.99,Meteorologica,2013-05-14 06:54:00,
2013-05-14 01:59:00,65.6,57.5,29.89,SSW,197,0.0,0.0,74,0.00,,,-99.99,Meteorologica,2013-05-14 06:59:00,
2013-05-14 02:04:00,65.4,57.4,29.88,SSW,197,0.0,0.0,75,0.00,,,-99.99,Meteorologica,2013-05-14 07:04:00,
2013-05-14 02:09:00,65.3,57.4,29.88,SSW,197,0.0,0.0,75,0.00,,,-99.99,Meteorologica,2013-05-14 07:09:00,
2013-05-14 02:14:00,65.1,57.4,29.88,SSW,197,0.0,0.0,75,0.00,,,-99.99,Meteorologica,2013-05-14 07:14:00,
2013-05-14 02:19:00,65.0,57.3,29.88,SSW,197,0.0,0.0,75,0.00,,,-99.99,Meteorologica,2013-05-14 07:19:00,
2013-05-14 02:24:00,64.9,57.3,29.88,SSW,197,0.0,0.0,76,0.00,,,-99.99,Meteorologica,2013-05-14 07:24:00,
2013-05-14 02:29:00,64.8,57.5,29.87,SSW,197,0.0,0.0,76,0.00,,,-99.99,Meteorologica,2013-05-14 07:29:00,
2013-05-14 02:34:00,64.7,57.4,29.87,SSW,197,0.0,0.0,77,0.00,,,-99.99,Meteorologica,2013-05-14 07:34:00,
2013-05-14 02:39:00,64.6,57.5,29.87,SSW,197,0.0,0.0,77,0.00,,,-99.99,Meteorologica,2013-05-14 07:39:00,
2013-05-14 02:44:00,64.4,57.3,29.87,SSW,197,0.0,0.0,77,0.00,,,-99.99,Meteorologica,2013-05-14 07:44:00,
2013-05-14 02:49:00,64.3,57.3,29.87,SSW,197,0.0,0.0,77,0.00,,,-99.99,Meteorologica,2013-05-14 07:49:00,
2013-05-14 02:54:00,64.1,57.3,29.86,SSW,197,0.0,0.0,78,0.00,,,-99.99,Meteorologica,2013-05-14 07:54:00,
2013-05-14 02:59:00,63.9,57.3,29.86,SSW,197,0.0,0.0,78,0.00,,,-99.99,Meteorologica,2013-05-14 07:59:00,
2013-05-14 03:04:00,63.8,57.2,29.86,SSW,197,0.0,0.0,79,0.00,,,-99.99,Meteorologica,2013-05-14 08:04:00,
2013-05-14 03:09:00,63.7,57.3,29.85,SSW,197,0.0,0.0,79,0.00,,,-99.99,Meteorologica,2013-05-14 08:09:00,
2013-05-14 03:14:00,63.5,57.2,29.86,SSW,197,0.0,0.0,79,0.00,,,-99.99,Meteorologica,2013-05-14 08:14:00,
2013-05-14 03:19:00,63.3,57.2,29.85,SSW,197,0.0,0.0,80,0.00,,,-99.99,Meteorologica,2013-05-14 08:19:00,
2013-05-14 03:24:00,63.2,57.3,29.85,SSW,197,0.0,0.0,80,0.00,,,-99.99,Meteorologica,2013-05-14 08:24:00,
2013-05-14 03:29:00,63.1,57.2,29.85,SSW,197,0.0,0.0,80,0.00,,,-99.99,Meteorologica,2013-05-14 08:29:00,
2013-05-14 03:34:00,63.0,57.2,29.85,SSW,197,0.0,0.0,81,0.00,,,-99.99,Meteorologica,2013-05-14 08:34:00,
2013-05-14 03:39:00,62.8,57.0,29.85,SSW,197,0.0,0.0,81,0.00,,,-99.99,Meteorologica,2013-05-14 08:39:00,
2013-05-14 03:44:00,62.8,57.1,29.85,SSW,197,0.0,0.0,81,0.00,,,-99.99,Meteorologica,2013-05-14 08:44:00,
2013-05-14 03:49:00,62.5,57.0,29.85,SSW,197,0.0,0.0,82,0.00,,,-99.99,Meteorologica,2013-05-14 08:49:00,
2013-05-14 03:54:00,62.4,56.9,29.85,SSW,197,0.0,0.0,82,0.00,,,-99.99,Meteorologica,2013-05-14 08:54:00,
2013-05-14 03:59:00,62.5,57.0,29.85,ESE,112,0.0,0.0,82,0.00,,,-99.99,Meteorologica,2013-05-14 08:59:00,
2013-05-14 04:04:00,62.5,57.1,29.85,ESE,112,0.0,0.0,82,0.00,,,-99.99,Meteorologica,2013-05-14 09:04:00,
2013-05-14 04:09:00,62.5,57.0,29.85,ESE,112,0.0,0.0,82,0.00,,,-99.99,Meteorologica,2013-05-14 09:09:00,
2013-05-14 04:14:00,62.5,57.1,29.85,ESE,112,0.0,0.0,82,0.00,,,-99.99,Meteorologica,2013-05-14 09:14:00,
2013-05-14 04:19:00,62.4,57.0,29.85,ESE,112,0.0,0.0,82,0.00,,,-99.99,Meteorologica,2013-05-14 09:19:00,
2013-05-14 04:24:00,62.2,56.8,29.85,ESE,112,0.0,0.0,82,0.00,,,-99.99,Meteorologica,2013-05-14 09:24:00,
2013-05-14 04:29:00,62.0,56.9,29.85,ESE,112,0.0,0.0,83,0.00,,,-99.99,Meteorologica,2013-05-14 09:29:00,
2013-05-14 04:34:00,61.9,56.9,29.84,ESE,112,0.0,0.0,83,0.00,,,-99.99,Meteorologica,2013-05-14 09:34:00,
2013-05-14 04:39:00,61.8,56.9,29.85,ESE,112,0.0,0.0,83,0.00,,,-99.99,Meteorologica,2013-05-14 09:39:00,
2013-05-14 04:44:00,61.7,56.8,29.85,ESE,112,0.0,0.0,83,0.00,,,-99.99,Meteorologica,2013-05-14 09:44:00,
2013-05-14 04:49:00,61.6,56.7,29.85,ESE,112,0.0,0.0,83,0.00,,,-99.99,Meteorologica,2013-05-14 09:49:00,
2013-05-14 04:54:00,61.4,56.6,29.85,ESE,112,0.0,0.0,84,0.00,,,-99.99,Meteorologica,2013-05-14 09:54:00,
2013-05-14 04:59:00,61.3,56.6,29.85,ESE,112,0.0,0.0,84,0.00,,,-99.99,Meteorologica,2013-05-14 09:59:00,
2013-05-14 05:04:00,61.4,56.8,29.85,ESE,112,0.0,0.0,84,0.00,,,-99.99,Meteorologica,2013-05-14 10:04:00,
2013-05-14 05:09:00,61.4,56.7,29.85,ESE,112,0.0,0.0,84,0.00,,,-99.99,Meteorologica,2013-05-14 10:09:00,
2013-05-14 05:14:00,61.4,56.6,29.85,ESE,112,0.0,0.0,84,0.00,,,-99.99,Meteorologica,2013-05-14 10:14:00,
2013-05-14 05:19:00,61.4,56.7,29.85,ESE,112,0.0,0.0,84,0.00,,,-99.99,Meteorologica,2013-05-14 10:19:00,
2013-05-14 05:24:00,61.3,56.7,29.84,ESE,112,0.0,0.0,84,0.00,,,-99.99,Meteorologica,2013-05-14 10:24:00,
2013-05-14 05:29:00,61.2,56.7,29.85,ESE,112,0.0,0.0,85,0.00,,,-99.99,Meteorologica,2013-05-14 10:29:00,
2013-05-14 05:34:00,61.1,56.6,29.85,ESE,112,0.0,0.0,85,0.00,,,-99.99,Meteorologica,2013-05-14 10:34:00,
2013-05-14 05:39:00,61.0,56.6,29.85,ESE,112,0.0,0.0,85,0.00,,,-99.99,Meteorologica,2013-05-14 10:39:00,
2013-05-14 05:44:00,61.0,56.6,29.85,ESE,112,0.0,0.0,85,0.00,,,-99.99,Meteorologica,2013-05-14 10:44:00,
2013-05-14 05:49:00,60.9,56.5,29.85,ESE,112,0.0,0.0,85,0.00,,,-99.99,Meteorologica,2013-05-14 10:49:00,
2013-05-14 05:54:00,60.8,56.5,29.84,ESE,112,0.0,0.0,85,0.00,,,-99.99,Meteorologica,2013-05-14 10:54:00,
2013-05-14 05:59:00,60.7,56.3,29.84,ESE,112,0.0,0.0,85,0.00,,,-99.99,Meteorologica,2013-05-14 10:59:00,
2013-05-14 06:04:00,60.6,56.3,29.85,ESE,112,0.0,0.0,85,0.00,,,-99.99,Meteorologica,2013-05-14 11:04:00,
2013-05-14 06:09:00,60.5,56.3,29.84,ESE,112,0.0,0.0,85,0.00,,,-99.99,Meteorologica,2013-05-14 11:09:00,
2013-05-14 06:14:00,60.4,56.3,29.84,ESE,112,0.0,0.0,86,0.00,,,-99.99,Meteorologica,2013-05-14 11:14:00,
2013-05-14 06:19:00,60.4,56.3,29.84,ESE,112,0.0,0.0,86,0.00,,,-99.99,Meteorologica,2013-05-14 11:19:00,
2013-05-14 06:24:00,60.4,56.4,29.85,ESE,112,0.0,0.0,86,0.00,,,-99.99,Meteorologica,2013-05-14 11:24:00,
2013-05-14 06:29:00,60.5,56.4,29.85,ESE,112,0.0,0.0,86,0.00,,,-99.99,Meteorologica,2013-05-14 11:29:00,
2013-05-14 06:34:00,60.8,56.5,29.84,ESE,112,0.0,0.0,85,0.00,,,-99.99,Meteorologica,2013-05-14 11:34:00,
2013-05-14 06:39:00,60.9,56.4,29.85,ESE,112,0.0,0.0,85,0.00,,,-99.99,Meteorologica,2013-05-14 11:39:00,
2013-05-14 06:44:00,61.1,56.4,29.85,ESE,112,0.0,0.0,84,0.00,,,-99.99,Meteorologica,2013-05-14 11:44:00,
2013-05-14 06:49:00,61.3,56.5,29.85,ESE,112,0.0,0.0,84,0.00,,,-99.99,Meteorologica,2013-05-14 11:49:00,
2013-05-14 06:54:00,61.4,56.5,29.85,ESE,112,0.0,0.0,83,0.00,,,-99.99,Meteorologica,2013-05-14 11:54:00,
2013-05-14 06:59:00,61.6,56.5,29.85,ESE,112,0.0,0.0,83,0.00,,,-99.99,Meteorologica,2013-05-14 11:59:00,
2013-05-14 07:04:00,61.9,56.6,29.85,ESE,112,0.0,0.0,82,0.00,,,-99.99,Meteorologica,2013-05-14 12:04:00,
2013-05-14 07:09:00,62.1,56.7,29.85,ESE,107,0.0,0.0,82,0.00,,,-99.99,Meteorologica,2013-05-14 12:09:00,
2013-05-14 07:14:00,62.4,56.9,29.85,South,179,2.9,4.7,82,0.00,,,-99.99,Meteorologica,2013-05-14 12:14:00,
2013-05-14 07:19:00,62.7,56.9,29.85,SSE,159,3.1,5.1,81,0.00,,,-99.99,Meteorologica,2013-05-14 12:19:00,
2013-05-14 07:24:00,63.1,57.1,29.85,South,189,2.6,5.5,80,0.00,,,-99.99,Meteorologica,2013-05-14 12:24:00,
2013-05-14 07:29:00,63.7,57.4,29.85,SSW,207,5.5,7.1,79,0.00,,,-99.99,Meteorologica,2013-05-14 12:29:00,
2013-05-14 07:34:00,64.3,57.5,29.85,SSE,165,4.0,6.7,78,0.00,,,-99.99,Meteorologica,2013-05-14 12:34:00,
2013-05-14 07:39:00,64.9,57.5,29.85,SSE,167,3.4,7.6,76,0.00,,,-99.99,Meteorologica,2013-05-14 12:39:00,
2013-05-14 07:44:00,65.3,57.7,29.85,SSE,167,4.1,6.1,76,0.00,,,-99.99,Meteorologica,2013-05-14 12:44:00,
2013-05-14 07:49:00,65.7,57.7,29.85,SSE,160,3.6,6.0,75,0.00,,,-99.99,Meteorologica,2013-05-14 12:49:00,
2013-05-14 07:54:00,66.2,57.8,29.85,SSE,165,3.7,7.7,73,0.00,,,-99.99,Meteorologica,2013-05-14 12:54:00,
2013-05-14 07:59:00,66.7,57.7,29.84,SSE,166,5.2,9.9,72,0.00,,,-99.99,Meteorologica,2013-05-14 12:59:00,
2013-05-14 08:04:00,67.2,57.7,29.84,SW,214,3.3,6.9,71,0.00,,,-99.99,Meteorologica,2013-05-14 13:04:00,
2013-05-14 08:09:00,67.8,57.7,29.84,SW,215,4.1,8.4,69,0.00,,,-99.99,Meteorologica,2013-05-14 13:09:00,
2013-05-14 08:14:00,68.2,58.0,29.84,South,185,1.5,7.4,69,0.00,,,-99.99,Meteorologica,2013-05-14 13:14:00,
2013-05-14 08:19:00,68.6,57.2,29.84,South,183,6.0,7.8,66,0.00,,,-99.99,Meteorologica,2013-05-14 13:19:00,
2013-05-14 08:24:00,69.2,57.0,29.85,SSW,204,6.2,12.3,64,0.00,,,-99.99,Meteorologica,2013-05-14 13:24:00,
2013-05-14 08:29:00,69.6,56.4,29.84,WSW,244,5.1,11.8,62,0.00,,,-99.99,Meteorologica,2013-05-14 13:29:00,
2013-05-14 08:34:00,70.2,56.5,29.84,SW,224,4.3,11.3,61,0.00,,,-99.99,Meteorologica,2013-05-14 13:34:00,
2013-05-14 08:39:00,70.7,56.5,29.85,SW,221,6.0,10.7,60,0.00,,,-99.99,Meteorologica,2013-05-14 13:39:00,
2013-05-14 08:44:00,71.1,56.2,29.85,SSW,194,5.7,9.9,58,0.00,,,-99.99,Meteorologica,2013-05-14 13:44:00,
2013-05-14 08:49:00,71.5,56.4,29.85,WSW,239,3.3,8.4,58,0.00,,,-99.99,Meteorologica,2013-05-14 13:49:00,
2013-05-14 08:54:00,71.9,56.9,29.85,SSW,203,2.6,6.9,58,0.00,,,-99.99,Meteorologica,2013-05-14 13:54:00,
2013-05-14 08:59:00,72.6,55.8,29.85,SSW,195,4.9,8.0,55,0.00,,,-99.99,Meteorologica,2013-05-14 13:59:00,
2013-05-14 09:04:00,73.0,55.1,29.85,SSW,201,8.1,11.7,53,0.00,,,-99.99,Meteorologica,2013-05-14 14:04:00,
2013-05-14 09:09:00,73.5,55.6,29.84,SW,223,1.5,5.2,53,0.00,,,-99.99,Meteorologica,2013-05-14 14:09:00,
2013-05-14 09:14:00,73.9,54.9,29.85,SSW,194,2.0,7.9,51,0.00,,,-99.99,Meteorologica,2013-05-14 14:14:00,
2013-05-14 09:19:00,74.3,55.4,29.85,WNW,300,0.4,2.7,51,0.00,,,-99.99,Meteorologica,2013-05-14 14:19:00,
2013-05-14 09:24:00,74.6,55.1,29.85,SW,233,3.3,8.7,50,0.00,,,-99.99,Meteorologica,2013-05-14 14:24:00,
2013-05-14 09:29:00,75.2,55.1,29.85,West,263,2.0,4.6,49,0.00,,,-99.99,Meteorologica,2013-05-14 14:29:00,
2013-05-14 09:34:00,75.6,54.0,29.85,WSW,249,6.1,8.2,47,0.00,,,-99.99,Meteorologica,2013-05-14 14:34:00,
2013-05-14 09:39:00,75.7,54.3,29.85,WNW,297,5.4,9.9,47,0.00,,,-99.99,Meteorologica,2013-05-14 14:39:00,
2013-05-14 09:44:00,75.9,54.0,29.85,WSW,242,6.4,9.8,46,0.00,,,-99.99,Meteorologica,2013-05-14 14:44:00,
2013-05-14 09:49:00,76.2,54.3,29.84,WSW,242,3.6,6.9,46,0.00,,,-99.99,Meteorologica,2013-05-14 14:49:00,
2013-05-14 09:54:00,76.8,54.0,29.84,SSW,209,5.6,8.6,46,0.00,,,-99.99,Meteorologica,2013-05-14 14:54:00,
2013-05-14 09:59:00,76.8,53.2,29.84,SSW,197,1.5,6.4,44,0.00,,,-99.99,Meteorologica,2013-05-14 14:59:00,
2013-05-14 10:04:00,77.7,54.0,29.84,SSW,200,0.5,2.8,43,0.00,,,-99.99,Meteorologica,2013-05-14 15:04:00,
2013-05-14 10:09:00,78.4,53.2,29.84,West,266,6.0,11.7,41,0.00,,,-99.99,Meteorologica,2013-05-14 15:09:00,
2013-05-14 10:14:00,78.8,54.1,29.84,South,178,1.1,6.4,42,0.00,,,-99.99,Meteorologica,2013-05-14 15:14:00,
2013-05-14 10:19:00,79.4,54.3,29.84,SW,224,2.1,6.6,42,0.00,,,-99.99,Meteorologica,2013-05-14 15:19:00,
2013-05-14 10:24:00,79.4,53.1,29.84,SSW,206,6.0,11.3,40,0.00,,,-99.99,Meteorologica,2013-05-14 15:24:00,
2013-05-14 10:29:00,79.8,53.1,29.84,West,261,2.8,6.9,39,0.00,,,-99.99,Meteorologica,2013-05-14 15:29:00,
2013-05-14 10:34:00,80.1,54.9,29.84,South,190,7.9,10.0,42,0.00,,,-99.99,Meteorologica,2013-05-14 15:34:00,
2013-05-14 10:39:00,80.0,52.9,29.84,SSW,208,7.8,11.9,39,0.00,,,-99.99,Meteorologica,2013-05-14 15:39:00,
2013-05-14 10:44:00,80.4,53.3,29.84,SW,227,6.8,10.4,39,0.00,,,-99.99,Meteorologica,2013-05-14 15:44:00,
2013-05-14 10:49:00,80.4,53.5,29.84,SW,218,5.3,9.2,39,0.00,,,-99.99,Meteorologica,2013-05-14 15:49:00,
2013-05-14 10:54:00,81.1,54.8,29.84,SW,221,4.4,9.1,40,0.00,,,-99.99,Meteorologica,2013-05-14 15:54:00,
2013-05-14 10:59:00,81.2,53.1,29.84,SSE,161,6.9,10.8,38,0.00,,,-99.99,Meteorologica,2013-05-14 15:59:00,
2013-05-14 11:04:00,81.5,55.1,29.84,NW,313,1.6,6.9,40,0.00,,,-99.99,Meteorologica,2013-05-14 16:04:00,
2013-05-14 11:09:00,82.4,54.5,29.84,SW,224,3.0,7.2,38,0.00,,,-99.99,Meteorologica,2013-05-14 16:09:00,
2013-05-14 11:14:00,83.0,53.5,29.84,SSW,199,3.0,5.7,36,0.00,,,-99.99,Meteorologica,2013-05-14 16:14:00,
2013-05-14 11:19:00,82.8,52.3,29.84,SSW,206,5.2,9.5,35,0.00,,,-99.99,Meteorologica,2013-05-14 16:19:00,
2013-05-14 11:24:00,83.3,53.7,29.84,SE,129,0.3,2.4,36,0.00,,,-99.99,Meteorologica,2013-05-14 16:24:00,
2013-05-14 11:29:00,83.9,54.4,29.84,WSW,245,1.4,6.4,36,0.00,,,-99.99,Meteorologica,2013-05-14 16:29:00,
2013-05-14 11:34:00,84.5,53.9,29.84,SSW,204,4.3,11.7,35,0.00,,,-99.99,Meteorologica,2013-05-14 16:34:00,
2013-05-14 11:39:00,84.9,54.8,29.84,South,179,5.5,10.6,35,0.00,,,-99.99,Meteorologica,2013-05-14 16:39:00,
2013-05-14 11:44:00,84.8,54.3,29.84,South,176,3.4,6.4,35,0.00,,,-99.99,Meteorologica,2013-05-14 16:44:00,
2013-05-14 11:49:00,85.2,53.9,29.83,SSW,210,5.9,9.9,34,0.00,,,-99.99,Meteorologica,2013-05-14 16:49:00,
2013-05-14 11:54:00,85.2,52.8,29.83,SW,220,8.9,15.3,33,0.00,,,-99.99,Meteorologica,2013-05-14 16:54:00,
2013-05-14 11:59:00,85.4,53.1,29.83,SW,218,7.0,10.4,33,0.00,,,-99.99,Meteorologica,2013-05-14 16:59:00,
2013-05-14 12:04:00,85.4,52.9,29.83,SW,225,7.0,12.5,32,0.00,,,-99.99,Meteorologica,2013-05-14 17:04:00,
2013-05-14 12:09:00,85.8,54.3,29.83,SW,224,5.3,10.4,34,0.00,,,-99.99,Meteorologica,2013-05-14 17:09:00,
2013-05-14 12:14:00,86.3,53.9,29.83,South,191,3.8,10.7,33,0.00,,,-99.99,Meteorologica,2013-05-14 17:14:00,
2013-05-14 12:19:00,86.9,53.5,29.83,SW,215,4.7,9.8,32,0.00,,,-99.99,Meteorologica,2013-05-14 17:19:00,
2013-05-14 12:24:00,87.0,53.0,29.82,SW,220,9.0,13.9,31,0.00,,,-99.99,Meteorologica,2013-05-14 17:24:00,
2013-05-14 12:29:00,86.8,53.3,29.83,SW,223,7.9,12.8,32,0.00,,,-99.99,Meteorologica,2013-05-14 17:29:00,
2013-05-14 12:34:00,87.1,54.2,29.83,South,180,4.0,11.0,32,0.00,,,-99.99,Meteorologica,2013-05-14 17:34:00,
2013-05-14 12:39:00,87.2,54.2,29.82,WSW,240,4.6,12.1,32,0.00,,,-99.99,Meteorologica,2013-05-14 17:39:00,
2013-05-14 12:44:00,87.8,53.9,29.82,SW,231,4.8,9.7,31,0.00,,,-99.99,Meteorologica,2013-05-14 17:44:00,
2013-05-14 12:49:00,88.1,55.2,29.82,South,180,4.6,9.6,32,0.00,,,-99.99,Meteorologica,2013-05-14 17:49:00,
2013-05-14 12:54:00,88.0,52.6,29.82,SW,231,5.7,9.2,30,0.00,,,-99.99,Meteorologica,2013-05-14 17:54:00,
2013-05-14 12:59:00,88.2,53.8,29.81,South,182,10.4,15.1,31,0.00,,,-99.99,Meteorologica,2013-05-14 17:59:00,
2013-05-14 13:04:00,88.4,54.0,29.81,SSW,205,8.2,13.0,31,0.00,,,-99.99,Meteorologica,2013-05-14 18:04:00,
2013-05-14 13:09:00,88.7,55.0,29.81,NW,304,5.6,11.0,32,0.00,,,-99.99,Meteorologica,2013-05-14 18:09:00,
2013-05-14 13:14:00,88.9,53.8,29.81,SW,214,7.4,12.4,30,0.00,,,-99.99,Meteorologica,2013-05-14 18:14:00,
2013-05-14 13:19:00,89.2,53.8,29.81,SSW,212,6.3,10.2,30,0.00,,,-99.99,Meteorologica,2013-05-14 18:19:00,
2013-05-14 13:24:00,89.6,52.5,29.80,SSW,210,10.2,16.7,28,0.00,,,-99.99,Meteorologica,2013-05-14 18:24:00,
2013-05-14 13:29:00,89.2,52.0,29.81,South,182,11.6,18.5,28,0.00,,,-99.99,Meteorologica,2013-05-14 18:29:00,
2013-05-14 13:34:00,89.6,52.0,29.80,SW,223,7.8,12.2,27,0.00,,,-99.99,Meteorologica,2013-05-14 18:34:00,
2013-05-14 13:39:00,89.9,52.8,29.80,South,174,7.9,11.9,29,0.00,,,-99.99,Meteorologica,2013-05-14 18:39:00,
2013-05-14 13:44:00,89.8,51.8,29.80,SSW,195,12.6,19.4,27,0.00,,,-99.99,Meteorologica,2013-05-14 18:44:00,
2013-05-14 13:49:00,90.0,53.0,29.80,SSW,202,9.9,15.9,28,0.00,,,-99.99,Meteorologica,2013-05-14 18:49:00,
2013-05-14 13:54:00,90.2,52.9,29.80,SW,229,7.3,14.7,28,0.00,,,-99.99,Meteorologica,2013-05-14 18:54:00,
2013-05-14 13:59:00,90.1,51.7,29.80,SW,224,8.8,19.3,27,0.00,,,-99.99,Meteorologica,2013-05-14 18:59:00,
2013-05-14 14:04:00,90.4,52.2,29.80,West,277,7.2,11.5,27,0.00,,,-99.99,Meteorologica,2013-05-14 19:04:00,
2013-05-14 14:09:00,90.8,53.2,29.79,WSW,239,7.6,12.6,28,0.00,,,-99.99,Meteorologica,2013-05-14 19:09:00,
2013-05-14 14:14:00,91.1,53.5,29.80,South,185,8.3,14.6,28,0.00,,,-99.99,Meteorologica,2013-05-14 19:14:00,
2013-05-14 14:19:00,91.2,52.6,29.79,SSW,199,8.0,17.6,27,0.00,,,-99.99,Meteorologica,2013-05-14 19:19:00,
2013-05-14 14:24:00,91.1,51.6,29.79,South,191,10.4,17.9,25,0.00,,,-99.99,Meteorologica,2013-05-14 19:24:00,
2013-05-14 14:29:00,91.1,50.7,29.80,SW,214,9.7,15.3,25,0.00,,,-99.99,Meteorologica,2013-05-14 19:29:00,
2013-05-14 14:34:00,91.5,52.2,29.79,SW,220,5.2,9.1,26,0.00,,,-99.99,Meteorologica,2013-05-14 19:34:00,
2013-05-14 14:39:00,91.8,49.9,29.79,South,191,10.0,18.5,24,0.00,,,-99.99,Meteorologica,2013-05-14 19:39:00,
2013-05-14 14:44:00,91.8,51.2,29.79,WSW,237,8.0,16.0,24,0.00,,,-99.99,Meteorologica,2013-05-14 19:44:00,
2013-05-14 14:49:00,92.3,51.4,29.79,SSW,209,4.0,9.1,24,0.00,,,-99.99,Meteorologica,2013-05-14 19:49:00,
2013-05-14 14:54:00,92.8,51.3,29.79,SW,219,10.6,15.7,24,0.00,,,-99.99,Meteorologica,2013-05-14 19:54:00,
2013-05-14 14:59:00,93.3,51.4,29.79,SSW,211,9.2,14.0,24,0.00,,,-99.99,Meteorologica,2013-05-14 19:59:00,
2013-05-14 15:04:00,93.3,50.5,29.79,SW,217,9.3,17.8,23,0.00,,,-99.99,Meteorologica,2013-05-14 20:04:00,
2013-05-14 15:09:00,93.4,49.9,29.78,SSW,199,6.2,13.1,22,0.00,,,-99.99,Meteorologica,2013-05-14 20:09:00,
2013-05-14 15:14:00,94.0,48.8,29.78,SW,214,6.7,10.7,21,0.00,,,-99.99,Meteorologica,2013-05-14 20:14:00,
2013-05-14 15:19:00,94.1,49.4,29.78,South,191,9.5,16.7,21,0.00,,,-99.99,Meteorologica,2013-05-14 20:19:00,
2013-05-14 15:24:00,94.3,48.9,29.78,SSW,209,5.9,11.6,21,0.00,,,-99.99,Meteorologica,2013-05-14 20:24:00,
2013-05-14 15:29:00,94.1,45.3,29.78,SSW,196,11.9,23.5,19,0.00,,,-99.99,Meteorologica,2013-05-14 20:29:00,
2013-05-14 15:34:00,94.2,47.7,29.77,SW,222,7.1,11.0,20,0.00,,,-99.99,Meteorologica,2013-05-14 20:34:00,
2013-05-14 15:39:00,94.4,46.7,29.77,South,172,9.7,16.0,19,0.00,,,-99.99,Meteorologica,2013-05-14 20:39:00,
2013-05-14 15:44:00,94.9,48.3,29.77,SSW,213,6.0,9.7,20,0.00,,,-99.99,Meteorologica,2013-05-14 20:44:00,
2013-05-14 15:49:00,95.3,47.2,29.77,NW,304,2.2,7.5,19,0.00,,,-99.99,Meteorologica,2013-05-14 20:49:00,
2013-05-14 15:54:00,95.1,44.6,29.77,SW,232,8.3,16.5,17,0.00,,,-99.99,Meteorologica,2013-05-14 20:54:00,
2013-05-14 15:59:00,94.9,44.1,29.77,West,260,11.1,19.6,17,0.00,,,-99.99,Meteorologica,2013-05-14 20:59:00,
2013-05-14 16:04:00,95.1,45.5,29.77,SSW,202,7.2,12.1,18,0.00,,,-99.99,Meteorologica,2013-05-14 21:04:00,
2013-05-14 16:09:00,95.1,43.7,29.77,SW,222,8.7,22.1,17,0.00,,,-99.99,Meteorologica,2013-05-14 21:09:00,
2013-05-14 16:14:00,94.9,44.4,29.77,SW,218,8.2,12.7,17,0.00,,,-99.99,Meteorologica,2013-05-14 21:14:00,
2013-05-14 16:19:00,95.2,48.2,29.76,SW,229,5.5,15.1,20,0.00,,,-99.99,Meteorologica,2013-05-14 21:19:00,
2013-05-14 16:24:00,94.7,47.2,29.75,South,191,8.5,19.8,19,0.00,,,-99.99,Meteorologica,2013-05-14 21:24:00,
2013-05-14 16:29:00,94.7,47.9,29.75,South,189,11.8,22.6,20,0.00,,,-99.99,Meteorologica,2013-05-14 21:29:00,
2013-05-14 16:34:00,94.8,50.1,29.75,SSW,195,5.8,10.8,22,0.00,,,-99.99,Meteorologica,2013-05-14 21:34:00,
2013-05-14 16:39:00,94.7,48.4,29.75,SW,224,7.6,15.6,20,0.00,,,-99.99,Meteorologica,2013-05-14 21:39:00,
2013-05-14 16:44:00,94.3,47.1,29.75,South,191,9.0,16.7,19,0.00,,,-99.99,Meteorologica,2013-05-14 21:44:00,
2013-05-14 16:49:00,94.2,47.1,29.74,SSW,201,12.3,22.4,20,0.00,,,-99.99,Meteorologica,2013-05-14 21:49:00,
2013-05-14 16:54:00,93.8,45.7,29.75,SW,218,10.1,14.7,19,0.00,,,-99.99,Meteorologica,2013-05-14 21:54:00,
2013-05-14 16:59:00,93.8,46.0,29.74,South,191,7.5,14.0,19,0.00,,,-99.99,Meteorologica,2013-05-14 21:59:00,
2013-05-14 17:04:00,93.8,44.4,29.74,WSW,257,12.2,19.7,18,0.00,,,-99.99,Meteorologica,2013-05-14 22:04:00,
2013-05-14 17:09:00,93.8,45.7,29.75,SSW,212,11.4,20.0,19,0.00,,,-99.99,Meteorologica,2013-05-14 22:09:00,
2013-05-14 17:14:00,94.0,46.0,29.74,SSW,199,7.8,10.6,19,0.00,,,-99.99,Meteorologica,2013-05-14 22:14:00,
2013-05-14 17:19:00,94.1,45.6,29.74,West,274,4.0,10.5,19,0.00,,,-99.99,Meteorologica,2013-05-14 22:19:00,
2013-05-14 17:24:00,93.7,44.2,29.74,SSW,200,8.6,14.5,18,0.00,,,-99.99,Meteorologica,2013-05-14 22:24:00,
2013-05-14 17:29:00,93.7,44.3,29.74,South,188,8.3,21.9,18,0.00,,,-99.99,Meteorologica,2013-05-14 22:29:00,
2013-05-14 17:34:00,93.8,45.2,29.74,South,190,9.8,20.3,18,0.00,,,-99.99,Meteorologica,2013-05-14 22:34:00,
2013-05-14 17:39:00,93.7,43.9,29.74,WSW,239,8.9,18.8,18,0.00,,,-99.99,Meteorologica,2013-05-14 22:39:00,
2013-05-14 17:44:00,93.4,43.2,29.74,SW,222,12.7,22.3,18,0.00,,,-99.99,Meteorologica,2013-05-14 22:44:00,
2013-05-14 17:50:00,93.4,47.3,29.73,South,189,7.9,18.3,20,0.00,,,-99.99,Meteorologica,2013-05-14 22:50:00,
2013-05-14 17:55:00,93.0,47.7,29.74,WSW,248,11.8,21.0,21,0.00,,,-99.99,Meteorologica,2013-05-14 22:55:00,
2013-05-14 18:00:00,92.8,49.0,29.73,SW,226,10.3,18.7,22,0.00,,,-99.99,Meteorologica,2013-05-14 23:00:00,
2013-05-14 18:05:00,92.9,50.8,29.73,SW,216,8.2,16.6,24,0.00,,,-99.99,Meteorologica,2013-05-14 23:05:00,
2013-05-14 18:10:00,92.3,51.8,29.73,SSW,195,8.3,14.8,25,0.00,,,-99.99,Meteorologica,2013-05-14 23:10:00,
2013-05-14 18:15:00,92.1,53.3,29.74,SSW,198,9.4,16.2,26,0.00,,,-99.99,Meteorologica,2013-05-14 23:15:00,
2013-05-14 18:20:00,91.8,53.4,29.73,SSW,202,10.2,19.3,27,0.00,,,-99.99,Meteorologica,2013-05-14 23:20:00,
2013-05-14 18:25:00,91.3,54.4,29.73,SSW,204,9.3,21.8,28,0.00,,,-99.99,Meteorologica,2013-05-14 23:25:00,
2013-05-14 18:30:00,91.2,54.3,29.73,SSE,164,9.1,15.6,28,0.00,,,-99.99,Meteorologica,2013-05-14 23:30:00,
2013-05-14 18:35:00,91.0,53.5,29.73,SSW,200,8.0,16.4,28,0.00,,,-99.99,Meteorologica,2013-05-14 23:35:00,
2013-05-14 18:40:00,90.8,53.7,29.73,South,190,9.3,20.1,28,0.00,,,-99.99,Meteorologica,2013-05-14 23:40:00,
2013-05-14 18:45:00,90.7,54.5,29.73,SE,133,8.3,16.9,29,0.00,,,-99.99,Meteorologica,2013-05-14 23:45:00,
2013-05-14 18:50:00,90.5,54.2,29.74,SW,218,5.6,14.1,29,0.00,,,-99.99,Meteorologica,2013-05-14 23:50:00,
2013-05-14 18:55:00,90.1,54.4,29.73,South,190,9.4,19.3,29,0.00,,,-99.99,Meteorologica,2013-05-14 23:55:00,
2013-05-14 19:00:00,89.7,53.8,29.74,SW,235,8.5,18.3,29,0.00,,,-99.99,Meteorologica,2013-05-15 00:00:00,
2013-05-14 19:05:00,89.0,53.6,29.74,South,191,9.7,23.5,30,0.00,,,-99.99,Meteorologica,2013-05-15 00:05:00,
2013-05-14 19:10:00,88.6,54.6,29.75,SW,214,10.4,18.8,31,0.00,,,-99.99,Meteorologica,2013-05-15 00:10:00,
2013-05-14 19:15:00,88.0,54.5,29.75,SSW,196,14.3,30.0,32,0.00,,,-99.99,Meteorologica,2013-05-15 00:15:00,
2013-05-14 19:20:00,87.6,55.1,29.75,SSW,196,12.1,21.4,33,0.00,,,-99.99,Meteorologica,2013-05-15 00:20:00,
2013-05-14 19:25:00,87.5,55.6,29.75,SW,230,9.7,15.7,33,0.00,,,-99.99,Meteorologica,2013-05-15 00:25:00,
2013-05-14 19:30:00,87.2,55.5,29.75,South,180,12.0,23.4,34,0.00,,,-99.99,Meteorologica,2013-05-15 00:30:00,
2013-05-14 19:35:00,87.2,56.6,29.75,South,176,6.4,13.3,35,0.00,,,-99.99,Meteorologica,2013-05-15 00:35:00,
2013-05-14 19:40:00,86.9,56.1,29.75,South,184,6.5,16.0,35,0.00,,,-99.99,Meteorologica,2013-05-15 00:40:00,
2013-05-14 19:45:00,86.4,55.6,29.75,SSW,207,10.1,19.9,35,0.00,,,-99.99,Meteorologica,2013-05-15 00:45:00,
2013-05-14 19:50:00,85.8,54.1,29.75,SSW,197,11.5,19.5,34,0.00,,,-99.99,Meteorologica,2013-05-15 00:50:00,
2013-05-14 19:55:00,85.8,54.1,29.75,SW,216,5.5,19.5,34,0.00,,,-99.99,Meteorologica,2013-05-15 00:55:00,
2013-05-14 20:00:00,85.3,53.4,29.75,SSW,192,8.1,13.6,33,0.00,,,-99.99,Meteorologica,2013-05-15 01:00:00,
2013-05-14 20:05:00,85.0,53.4,29.75,South,191,7.8,12.8,33,0.00,,,-99.99,Meteorologica,2013-05-15 01:05:00,
2013-05-14 20:10:00,84.6,52.6,29.75,SW,226,7.1,19.1,33,0.00,,,-99.99,Meteorologica,2013-05-15 01:10:00,
2013-05-14 20:15:00,84.4,52.4,29.75,SSW,192,9.6,16.5,33,0.00,,,-99.99,Meteorologica,2013-05-15 01:15:00,
2013-05-14 20:20:00,83.9,51.6,29.75,SW,217,8.9,15.4,32,0.00,,,-99.99,Meteorologica,2013-05-15 01:20:00,
2013-05-14 20:25:00,83.7,51.4,29.75,SW,217,7.6,11.5,32,0.00,,,-99.99,Meteorologica,2013-05-15 01:25:00,
2013-05-14 20:30:00,83.4,51.8,29.75,SSW,213,4.6,13.1,33,0.00,,,-99.99,Meteorologica,2013-05-15 01:30:00,
2013-05-14 20:35:00,83.0,51.4,29.75,SSW,212,8.3,14.4,33,0.00,,,-99.99,Meteorologica,2013-05-15 01:35:00,
2013-05-14 20:40:00,82.6,51.3,29.75,SSW,209,8.8,14.9,34,0.00,,,-99.99,Meteorologica,2013-05-15 01:40:00,
2013-05-14 20:45:00,82.6,51.9,29.76,SW,221,6.8,15.4,34,0.00,,,-99.99,Meteorologica,2013-05-15 01:45:00,
2013-05-14 20:50:00,82.3,52.3,29.77,SW,215,5.8,9.6,35,0.00,,,-99.99,Meteorologica,2013-05-15 01:50:00,
2013-05-14 20:55:00,81.8,52.5,29.77,SW,236,7.6,11.8,36,0.00,,,-99.99,Meteorologica,2013-05-15 01:55:00,
2013-05-14 21:00:00,81.5,52.6,29.77,SW,230,7.6,11.7,37,0.00,,,-99.99,Meteorologica,2013-05-15 02:00:00,
2013-05-14 21:05:00,81.5,53.1,29.78,SSW,210,7.3,9.8,37,0.00,,,-99.99,Meteorologica,2013-05-15 02:05:00,
2013-05-14 21:10:00,81.4,53.2,29.78,SSW,192,5.5,8.7,37,0.00,,,-99.99,Meteorologica,2013-05-15 02:10:00,
2013-05-14 21:15:00,81.2,52.9,29.78,SSW,198,8.1,14.5,37,0.00,,,-99.99,Meteorologica,2013-05-15 02:15:00,
2013-05-14 21:20:00,80.9,52.9,29.78,SSW,207,8.4,14.9,38,0.00,,,-99.99,Meteorologica,2013-05-15 02:20:00,
2013-05-14 21:25:00,80.7,52.9,29.78,SSW,213,7.9,14.4,38,0.00,,,-99.99,Meteorologica,2013-05-15 02:25:00,
2013-05-14 21:30:00,80.4,53.1,29.79,SW,231,8.5,14.6,38,0.00,,,-99.99,Meteorologica,2013-05-15 02:30:00,
2013-05-14 21:35:00,80.4,53.1,29.79,SW,231,7.2,10.5,39,0.00,,,-99.99,Meteorologica,2013-05-15 02:35:00,
2013-05-14 21:40:00,80.3,53.1,29.79,SW,231,8.3,15.1,39,0.00,,,-99.99,Meteorologica,2013-05-15 02:40:00,
2013-05-14 21:45:00,80.1,52.9,29.79,SW,235,9.0,13.8,39,0.00,,,-99.99,Meteorologica,2013-05-15 02:45:00,
2013-05-14 21:50:00,80.1,53.3,29.80,SW,214,3.8,15.3,39,0.00,,,-99.99,Meteorologica,2013-05-15 02:50:00,
2013-05-14 21:55:00,80.0,53.3,29.79,SW,224,8.7,12.6,39,0.00,,,-99.99,Meteorologica,2013-05-15 02:55:00,
2013-05-14 22:00:00,79.9,53.3,29.80,WSW,239,4.3,16.5,39,0.00,,,-99.99,Meteorologica,2013-05-15 03:00:00,
2013-05-14 22:05:00,79.7,53.0,29.80,SW,219,8.2,13.9,39,0.00,,,-99.99,Meteorologica,2013-05-15 03:05:00,
2013-05-14 22:10:00,79.5,53.0,29.80,SSW,209,5.6,13.6,40,0.00,,,-99.99,Meteorologica,2013-05-15 03:10:00,
2013-05-14 22:15:00,79.3,52.8,29.80,SW,223,7.1,13.4,40,0.00,,,-99.99,Meteorologica,2013-05-15 03:15:00,
2013-05-14 22:20:00,79.4,53.2,29.80,SW,230,5.1,10.8,40,0.00,,,-99.99,Meteorologica,2013-05-15 03:20:00,
2013-05-14 22:25:00,79.3,53.2,29.81,WSW,239,6.7,10.5,40,0.00,,,-99.99,Meteorologica,2013-05-15 03:25:00,
2013-05-14 22:30:00,79.2,53.6,29.82,SW,221,1.1,5.6,41,0.00,,,-99.99,Meteorologica,2013-05-15 03:30:00,
2013-05-14 22:35:00,79.0,53.7,29.81,SW,229,5.0,7.7,41,0.00,,,-99.99,Meteorologica,2013-05-15 03:35:00,
2013-05-14 22:40:00,78.8,53.9,29.81,SSW,210,5.3,11.3,42,0.00,,,-99.99,Meteorologica,2013-05-15 03:40:00,
2013-05-14 22:45:00,78.7,53.8,29.81,South,183,5.2,9.7,42,0.00,,,-99.99,Meteorologica,2013-05-15 03:45:00,
2013-05-14 22:50:00,78.5,54.1,29.81,SW,221,5.8,13.4,42,0.00,,,-99.99,Meteorologica,2013-05-15 03:50:00,
2013-05-14 22:55:00,78.4,54.2,29.81,SSW,206,6.8,12.3,43,0.00,,,-99.99,Meteorologica,2013-05-15 03:55:00,
2013-05-14 23:00:00,78.3,54.6,29.81,SSE,163,5.5,10.8,44,0.00,,,-99.99,Meteorologica,2013-05-15 04:00:00,
2013-05-14 23:02:00,78.0,54.6,29.81,SW,231,6.4,10.8,44,0.00,,,-99.99,Meteorologica,2013-05-15 04:02:00,
2013-05-14 23:03:00,78.0,54.6,29.81,SSW,208,5.8,10.8,44,0.00,,,-99.99,Meteorologica,2013-05-15 04:03:00,
2013-05-14 23:04:00,78.0,54.7,29.81,South,189,2.4,5.6,44,0.00,,,-99.99,Meteorologica,2013-05-15 04:04:00,
2013-05-14 23:08:00,77.5,54.5,29.80,SSW,208,2.8,6.9,45,0.00,,,-99.99,Meteorologica,2013-05-15 04:08:00,
2013-05-14 23:13:00,77.4,54.9,29.81,SSW,210,6.7,0.0,45,0.00,,,-99.99,Meteorologica,2013-05-15 04:13:00,
2013-05-14 23:14:00,77.3,55.0,29.81,WSW,239,3.9,7.7,46,0.00,,,-99.99,Meteorologica,2013-05-15 04:14:00,
2013-05-14 23:19:00,77.3,55.1,29.80,WSW,252,7.5,11.4,46,0.00,,,-99.99,Meteorologica,2013-05-15 04:19:00,
2013-05-14 23:24:00,77.0,55.1,29.80,SW,214,7.2,11.8,46,0.00,,,-99.99,Meteorologica,2013-05-15 04:24:00,
2013-05-14 23:29:00,77.1,55.4,29.81,SW,234,4.3,6.9,47,0.00,,,-99.99,Meteorologica,2013-05-15 04:29:00,
2013-05-14 23:34:00,77.0,55.4,29.80,South,185,3.6,9.1,47,0.00,,,-99.99,Meteorologica,2013-05-15 04:34:00,
2013-05-14 23:39:00,77.0,55.7,29.81,SSW,208,4.3,9.9,47,0.00,,,-99.99,Meteorologica,2013-05-15 04:39:00,
2013-05-14 23:44:00,76.5,55.6,29.81,South,186,6.7,8.8,48,0.00,,,-99.99,Meteorologica,2013-05-15 04:44:00,
2013-05-14 23:49:00,76.4,55.8,29.81,SW,234,6.5,9.8,48,0.00,,,-99.99,Meteorologica,2013-05-15 04:49:00,
2013-05-14 23:54:00,76.2,56.0,29.80,South,170,5.2,10.0,49,0.00,,,-99.99,Meteorologica,2013-05-15 04:54:00,
2013-05-14 23:59:00,76.0,56.1,29.81,SW,221,6.7,9.1,50,0.00,,,-99.99,Meteorologica,2013-05-15 04:59:00,